Toronto Pearson, Ontario

6:14 AM EST on November 14, 2019 (GMT -0500)
Toronto-Pearson International

Weather History for CYYZ - May, 2019

Change the Weather History Date:

Wednesday, May 8, 2019

  Actual Average Record
Temperature  
Mean Temperature 44 °F -  
Max Temperature 52 °F 67 °F 82 °F (2007)
Min Temperature 37 °F 45 °F 35 °F (2017)
Degree Days  
Heating Degree Days 20    
Moisture  
Dew Point 28 °F    
Average Humidity 47    
Maximum Humidity 75    
Minimum Humidity 24    
Precipitation  
Precipitation 0.00 in 0.09 in - ()
Sea Level Pressure  
Sea Level Pressure 30.34 in    
Wind  
Wind Speed 13 mph ()    
Max Wind Speed 23 mph    
Max Gust Speed 30 mph    
Visibility 15.0 miles    
Events      
Averages and records for this station are not official NWS values.
T = Trace of Precipitation, MM = Missing Value Source: Averaged Metar Reports

Daily Weather History Graph

Daily Weather History Graph

Search for Another Location

Airport or City:

Astronomy

May. 08, 2019 Rise Set
Actual Time 6:01 AM EDT 8:28 PM EDT
Civil Twilight 5:29 AM EDT 9:01 PM EDT
Nautical Twilight 4:49 AM EDT 9:41 PM EDT
Astronomical Twilight 4:04 AM EDT 10:27 PM EDT
Moon 8:54 AM EDT (5/8) No Moon Set
Length of Visible Light 15h 31m
Length of Day
14h 27m
Waxing Crescent, 15% of the Moon is Illuminated
May 8
Waxing Crescent
May 11
First Quarter
May 18
Full
May 26
Last Quarter
Jun 3
New

Hourly Weather History & Observations

Time (EDT) Temp. Windchill Dew Point Humidity Pressure Visibility Wind Dir Wind Speed Gust Speed Precip Events Conditions
12:00 AM 44.6 °F 38.1 °F 28.4 °F 53% 30.30 in 15.0 mi NNW 13.8 mph - N/A   Clear
1:00 AM 42.8 °F 35.8 °F 28.4 °F 57% 30.30 in 15.0 mi North 13.8 mph - N/A   Clear
2:00 AM 40 °F - 29 °F 55% 30.31 in 15 mi North 12.7 mph - -   Clear
2:00 AM 41.0 °F 33.5 °F 30.2 °F 65% 30.31 in 15.0 mi North 13.8 mph - N/A   Partly Cloudy
3:00 AM 39.2 °F 33.0 °F 30.2 °F 70% 30.31 in 15.0 mi North 9.2 mph - N/A   Clear
4:00 AM 39.2 °F 33.6 °F 30.2 °F 70% 30.32 in 15.0 mi NNW 8.1 mph - N/A   Clear
5:00 AM 37.4 °F 32.1 °F 30.2 °F 75% 30.33 in 15.0 mi Variable 6.9 mph - N/A   Partly Cloudy
6:00 AM 37.4 °F 33.8 °F 30.2 °F 75% 30.35 in 15.0 mi Variable 4.6 mph - N/A   Mostly Cloudy
8:00 AM 46 °F - 33 °F 48% 30.41 in 15 mi ESE 11.5 mph - -   Clear
8:00 AM 46.4 °F 41.9 °F 32.0 °F 57% 30.41 in 15.0 mi East 9.2 mph 18.4 mph N/A   Scattered Clouds
9:00 AM 48.2 °F - 30.2 °F 50% 30.42 in 15.0 mi ESE 16.1 mph 24.2 mph N/A   Scattered Clouds
10:00 AM 50.0 °F - 28.4 °F 43% 30.42 in 15.0 mi ESE 16.1 mph 26.5 mph N/A   Scattered Clouds
11:00 AM 50 °F - 26 °F 27% 30.42 in 15 mi ESE 20.7 mph - -  
11:00 AM 50.0 °F - 26.6 °F 40% 30.41 in 15.0 mi ESE 23.0 mph 29.9 mph N/A   Mostly Cloudy
12:00 PM 50.0 °F - 30.2 °F 47% 30.39 in 15.0 mi ESE 12.7 mph 26.5 mph N/A   Scattered Clouds
1:00 PM 48.2 °F - 28.4 °F 46% 30.39 in 15.0 mi SE 23.0 mph - N/A   Partly Cloudy
2:00 PM 49 °F - 29 °F 32% 30.38 in 15 mi SE 23.0 mph - -   Clear
3:00 PM 51.8 °F - 28.4 °F 41% 30.36 in 15.0 mi SE 19.6 mph - N/A   Scattered Clouds
4:00 PM 51.8 °F - 30.2 °F 44% 30.35 in 15.0 mi SE 21.9 mph 27.6 mph N/A   Scattered Clouds
5:00 PM 51.8 °F - 26.6 °F 38% 30.32 in 15.0 mi ESE 19.6 mph - N/A   Scattered Clouds
6:00 PM 51.8 °F - 23.0 °F 33% 30.31 in 15.0 mi ESE 17.3 mph 26.5 mph N/A   Scattered Clouds
7:00 PM 50.0 °F - 23.0 °F 35% 30.31 in 15.0 mi ESE 13.8 mph 20.7 mph N/A   Mostly Cloudy
8:00 PM 48 °F - 22 °F 24% 30.29 in 15 mi ESE 12.7 mph - -   Partly Cloudy
8:00 PM 48.2 °F - 23.0 °F 37% 30.29 in 15.0 mi ESE 13.8 mph - N/A   Mostly Cloudy
9:00 PM 48.2 °F - 24.8 °F 40% 30.29 in 15.0 mi ESE 11.5 mph 17.3 mph N/A   Mostly Cloudy
10:00 PM 48.2 °F - 24.8 °F 40% 30.28 in 15.0 mi ESE 12.7 mph 21.9 mph N/A   Overcast
11:00 PM 49 °F - 24 °F 24% 30.26 in 15 mi ESE 15.0 mph - -   Overcast
11:00 PM 48.2 °F - 23.0 °F 37% 30.26 in 15.0 mi ESE 16.1 mph 23.0 mph N/A   Overcast